TimeEDT,TemperatureF,Dew PointF,Humidity,Sea Level PressureIn,VisibilityMPH,Wind Direction,Wind SpeedMPH,Gust SpeedMPH,PrecipitationIn,Events,Conditions,WindDirDegrees,DateUTC
12:15 AM,57.2,57.2,100,29.74,4.0,East,3.5,-,0.03,Rain,Rain,100,2013-04-12 04:15:00
12:35 AM,57.2,57.2,100,29.75,3.0,NE,3.5,-,0.06,Rain,Light Rain,50,2013-04-12 04:35:00
12:55 AM,57.2,57.2,100,29.72,3.0,NE,5.8,-,0.12,Rain,Light Rain,50,2013-04-12 04:55:00
1:15 AM,57.2,57.2,100,29.72,5.0,ESE,3.5,-,0.01,Rain,Light Rain,120,2013-04-12 05:15:00
1:35 AM,57.2,57.2,100,29.67,3.0,East,9.2,-,0.05,Rain,Light Rain,90,2013-04-12 05:35:00
1:55 AM,59.0,59.0,100,29.63,10.0,SE,8.1,-,0.05,,Overcast,130,2013-04-12 05:55:00
2:15 AM,60.8,57.2,88,29.64,10.0,SSE,5.8,-,N/A,,Overcast,160,2013-04-12 06:15:00
2:35 AM,62.6,57.2,82,29.63,10.0,WSW,5.8,-,N/A,,Overcast,240,2013-04-12 06:35:00
2:55 AM,62.6,57.2,82,29.62,10.0,Calm,Calm,-,N/A,,Mostly Cloudy,0,2013-04-12 06:55:00
3:15 AM,59.0,59.0,100,29.63,10.0,South,3.5,-,N/A,,Overcast,180,2013-04-12 07:15:00
3:35 AM,60.8,59.0,94,29.63,10.0,SSW,3.5,-,N/A,,Overcast,200,2013-04-12 07:35:00
3:55 AM,62.6,57.2,82,29.63,10.0,South,4.6,-,N/A,,Overcast,180,2013-04-12 07:55:00
4:15 AM,59.0,59.0,100,29.64,6.0,Calm,Calm,-,0.01,Rain,Light Rain,0,2013-04-12 08:15:00
4:35 AM,59.0,59.0,100,29.64,2.5,Calm,Calm,-,0.08,Rain,Rain,0,2013-04-12 08:35:00
4:55 AM,59.0,59.0,100,29.64,9.0,SW,4.6,-,0.09,Rain,Light Rain,230,2013-04-12 08:55:00
5:15 AM,59.0,59.0,100,29.65,5.0,West,11.5,-,0.01,Rain,Light Rain,270,2013-04-12 09:15:00
5:35 AM,57.2,53.6,88,29.67,10.0,WNW,9.2,-,0.01,Rain,Light Rain,300,2013-04-12 09:35:00
5:55 AM,57.2,53.6,88,29.67,10.0,WNW,10.4,-,0.01,,Overcast,290,2013-04-12 09:55:00
6:15 AM,57.2,51.8,82,29.69,10.0,WNW,13.8,17.3,N/A,,Overcast,290,2013-04-12 10:15:00
6:35 AM,55.4,51.8,88,29.71,10.0,WNW,9.2,-,N/A,,Overcast,300,2013-04-12 10:35:00
6:55 AM,55.4,51.8,88,29.72,10.0,WNW,10.4,-,N/A,,Overcast,300,2013-04-12 10:55:00
7:15 AM,55.4,50.0,82,29.74,10.0,WNW,8.1,-,N/A,,Overcast,290,2013-04-12 11:15:00
7:35 AM,55.4,50.0,82,29.76,10.0,WNW,9.2,-,N/A,,Overcast,290,2013-04-12 11:35:00
7:55 AM,53.6,50.0,88,29.77,10.0,West,8.1,-,N/A,,Overcast,270,2013-04-12 11:55:00
8:15 AM,53.6,50.0,88,29.79,10.0,West,6.9,-,N/A,,Overcast,270,2013-04-12 12:15:00
8:35 AM,53.6,50.0,88,29.79,10.0,West,10.4,-,N/A,,Overcast,270,2013-04-12 12:35:00
8:55 AM,53.6,48.2,82,29.81,10.0,WNW,10.4,-,N/A,,Overcast,290,2013-04-12 12:55:00
9:15 AM,51.8,46.4,82,29.82,10.0,WNW,10.4,-,N/A,,Overcast,300,2013-04-12 13:15:00
9:35 AM,50.0,46.4,87,29.82,10.0,West,9.2,-,N/A,,Overcast,280,2013-04-12 13:35:00
9:55 AM,50.0,44.6,82,29.83,10.0,West,8.1,-,N/A,,Overcast,280,2013-04-12 13:55:00
10:15 AM,50.0,44.6,82,29.84,10.0,NW,8.1,-,N/A,,Overcast,310,2013-04-12 14:15:00
10:35 AM,50.0,44.6,82,29.84,10.0,West,10.4,-,N/A,,Overcast,280,2013-04-12 14:35:00
10:55 AM,50.0,44.6,82,29.86,10.0,WNW,9.2,-,N/A,,Overcast,300,2013-04-12 14:55:00
11:15 AM,50.0,42.8,76,29.86,10.0,WNW,9.2,-,N/A,,Overcast,290,2013-04-12 15:15:00
11:35 AM,50.0,42.8,76,29.87,10.0,West,9.2,-,N/A,,Overcast,280,2013-04-12 15:35:00
11:55 AM,50.0,42.8,76,29.87,10.0,West,9.2,-,N/A,,Overcast,280,2013-04-12 15:55:00
12:15 PM,51.8,42.8,71,29.88,10.0,West,8.1,-,N/A,,Overcast,270,2013-04-12 16:15:00
12:35 PM,53.6,41.0,62,29.88,10.0,West,8.1,-,N/A,,Overcast,270,2013-04-12 16:35:00
12:55 PM,55.4,39.2,54,29.87,10.0,WSW,10.4,-,N/A,,Mostly Cloudy,250,2013-04-12 16:55:00
1:15 PM,55.4,39.2,54,29.87,10.0,WSW,9.2,18.4,N/A,,Mostly Cloudy,250,2013-04-12 17:15:00
1:35 PM,57.2,39.2,51,29.86,10.0,SW,12.7,17.3,N/A,,Scattered Clouds,230,2013-04-12 17:35:00
1:55 PM,57.2,39.2,51,29.85,10.0,SW,13.8,-,N/A,,Scattered Clouds,230,2013-04-12 17:55:00
2:15 PM,57.2,39.2,51,29.85,10.0,SW,9.2,16.1,N/A,,Scattered Clouds,230,2013-04-12 18:15:00
2:35 PM,59.0,39.2,48,29.86,10.0,WSW,8.1,19.6,N/A,,Scattered Clouds,250,2013-04-12 18:35:00
2:55 PM,59.0,37.4,45,29.85,10.0,SW,13.8,19.6,N/A,,Partly Cloudy,230,2013-04-12 18:55:00
3:15 PM,60.8,37.4,42,29.85,10.0,West,9.2,-,N/A,,Partly Cloudy,260,2013-04-12 19:15:00
3:35 PM,60.8,37.4,42,29.84,10.0,West,10.4,-,N/A,,Clear,280,2013-04-12 19:35:00
3:55 PM,59.0,37.4,45,29.85,10.0,West,10.4,18.4,N/A,,Partly Cloudy,260,2013-04-12 19:55:00
4:15 PM,60.8,39.2,45,29.84,10.0,WSW,10.4,-,N/A,,Partly Cloudy,240,2013-04-12 20:15:00
4:35 PM,62.6,37.4,39,29.84,10.0,SW,13.8,-,N/A,,Clear,230,2013-04-12 20:35:00
4:55 PM,62.6,37.4,39,29.85,10.0,West,9.2,-,N/A,,Clear,260,2013-04-12 20:55:00
5:15 PM,62.6,35.6,37,29.85,10.0,WSW,10.4,-,N/A,,Clear,240,2013-04-12 21:15:00
5:35 PM,62.6,35.6,37,29.85,10.0,WSW,15.0,19.6,N/A,,Clear,240,2013-04-12 21:35:00
5:55 PM,62.6,33.8,34,29.85,10.0,WSW,10.4,16.1,N/A,,Clear,240,2013-04-12 21:55:00
6:15 PM,60.8,32.0,34,29.86,10.0,WSW,11.5,-,N/A,,Clear,250,2013-04-12 22:15:00
6:35 PM,60.8,33.8,36,29.86,10.0,WSW,10.4,-,N/A,,Clear,250,2013-04-12 22:35:00
6:55 PM,60.8,33.8,36,29.86,10.0,WSW,11.5,17.3,N/A,,Clear,240,2013-04-12 22:55:00
7:15 PM,59.0,33.8,39,29.86,10.0,WSW,6.9,-,N/A,,Clear,250,2013-04-12 23:15:00
7:35 PM,59.0,35.6,42,29.87,10.0,West,8.1,-,N/A,,Clear,270,2013-04-12 23:35:00
7:55 PM,57.2,35.6,44,29.87,10.0,West,4.6,-,N/A,,Clear,270,2013-04-12 23:55:00
8:15 PM,55.4,35.6,47,29.88,10.0,WNW,5.8,-,N/A,,Clear,300,2013-04-13 00:15:00
8:35 PM,55.4,35.6,47,29.89,10.0,NW,5.8,-,N/A,,Clear,310,2013-04-13 00:35:00
8:55 PM,53.6,35.6,51,29.90,10.0,WNW,6.9,-,N/A,,Clear,300,2013-04-13 00:55:00
9:15 PM,53.6,35.6,51,29.91,10.0,NW,6.9,-,N/A,,Clear,310,2013-04-13 01:15:00
9:35 PM,53.6,35.6,51,29.92,10.0,WNW,5.8,-,N/A,,Clear,300,2013-04-13 01:35:00
9:55 PM,51.8,35.6,54,29.93,10.0,WNW,3.5,-,N/A,,Clear,290,2013-04-13 01:55:00
10:15 PM,50.0,39.2,66,29.94,10.0,Calm,Calm,-,N/A,,Clear,0,2013-04-13 02:15:00
10:35 PM,48.2,39.2,71,29.94,10.0,Calm,Calm,-,N/A,,Mostly Cloudy,0,2013-04-13 02:35:00
10:55 PM,46.4,39.2,76,29.95,10.0,Calm,Calm,-,N/A,,Mostly Cloudy,0,2013-04-13 02:55:00
11:15 PM,46.4,39.2,76,29.95,10.0,Calm,Calm,-,N/A,,Mostly Cloudy,0,2013-04-13 03:15:00
11:35 PM,44.6,39.2,81,29.96,10.0,Calm,Calm,-,N/A,,Overcast,0,2013-04-13 03:35:00
11:55 PM,46.4,39.2,76,29.96,10.0,Calm,Calm,-,N/A,,Overcast,0,2013-04-13 03:55:00